DW4610 Gratot FR current weather conditions

sailwx.info

Wind from 352

Air temperature 14.4° C
Dewpoint 14.0° C

Last reported at 2019-Aug-18 05:00 UTC.
Time now 2019-Aug-18 05:19 UTC

Location: N 49°04' W 001°30'.
View on Google Maps.

See reports from other nearby stations

  
Tides and Currents Weather Stations Pressure Air Temp Water Temp Dewpoint Dewpoint Depression Visibility Wind Speed Wind Dir Waves Ship Positions
date/time (UTC)wind fromknots sea level pressurealtimeterstation pressurevisibilityair tempwater tempwave heightnotes
2019-Aug-18 05:00 352 14.4
2019-Aug-18 04:45 343 14.4
2019-Aug-18 04:30 323 0 gusting 6 14.4
2019-Aug-18 04:15 325 1 gusting 6 14.4
2019-Aug-18 04:00 322 2 gusting 12 14.4
2019-Aug-18 03:45 163 2 gusting 10 14.4
2019-Aug-18 03:30 325 2 gusting 10 14.4
2019-Aug-18 03:15 070 14.4
2019-Aug-18 03:00 053 14.4
2019-Aug-18 02:45 181 14.4
2019-Aug-18 02:30 165 14.4
2019-Aug-18 02:00 14.4
2019-Aug-18 01:45 135 14.4
2019-Aug-18 01:30 101 14.4
2019-Aug-18 01:15 162 14.4
2019-Aug-18 01:00 168 1 gusting 6 14.4
2019-Aug-18 00:45 174 2 gusting 6 14.4
2019-Aug-18 00:30 154 1 gusting 6 14.4
2019-Aug-18 00:15 181 3 gusting 10 14.4
2019-Aug-18 00:00 212 5 gusting 13 14.4
2019-Aug-17 23:45 212 4 gusting 12 15.0
2019-Aug-17 16:30 246 1 gusting 7 18.9
2019-Aug-17 16:15 228 2 gusting 7 18.9
2019-Aug-17 16:00 257 2 gusting 7 18.9
2019-Aug-17 15:45 254 2 gusting 10 19.4
2019-Aug-17 15:30 233 5 gusting 13 19.4
2019-Aug-17 15:15 268 3 gusting 9 18.9
2019-Aug-17 15:00 275 3 gusting 9 18.9
2019-Aug-17 14:15 249 3 gusting 11 19.4
2019-Aug-17 13:30 258 5 gusting 13 19.4
2019-Aug-17 12:15 275 5 gusting 13 18.9
2019-Aug-17 11:45 294 5 gusting 13 18.9
2019-Aug-17 11:30 316 3 gusting 14 18.3
2019-Aug-17 11:15 273 3 gusting 10 18.3
2019-Aug-17 11:00 285 4 gusting 10 17.8
2019-Aug-17 10:45 294 3 gusting 11 17.8
2019-Aug-17 10:15 268 3 gusting 9 17.2
2019-Aug-17 09:45 259 3 gusting 9 17.2
2019-Aug-17 09:30 241 1 gusting 8 17.2
2019-Aug-17 08:30 280 2 gusting 8 16.7
2019-Aug-17 08:15 272 2 gusting 7 16.7
2019-Aug-17 07:45 278 3 gusting 9 16.7
2019-Aug-17 07:00 284 5 gusting 16 17.2
2019-Aug-17 06:45 246 6 gusting 19 18.3
2019-Aug-17 06:30 217 5 gusting 19 18.3
2019-Aug-17 06:15 213 6 gusting 17 18.3
2019-Aug-17 06:00 201 6 gusting 16 18.3
2019-Aug-17 05:45 237 5 gusting 15 18.3
2019-Aug-17 05:30 241 5 gusting 15 18.3
2019-Aug-17 05:15 191 4 gusting 13 18.3
2019-Aug-17 05:00 224 6 gusting 13 18.3
2019-Aug-17 04:45 201 6 gusting 13 18.3
2019-Aug-17 04:30 238 6 gusting 13 18.3
2019-Aug-17 04:15 216 5 gusting 19 18.3
2019-Aug-17 04:00 220 6 gusting 17 18.9
2019-Aug-17 03:45 237 6 gusting 19 18.9
2019-Aug-17 03:30 208 6 gusting 19 18.9
2019-Aug-17 03:15 191 6 gusting 20 18.9
2019-Aug-17 03:00 217 7 gusting 21 18.3
2019-Aug-17 02:45 255 8 gusting 21 18.3
2019-Aug-17 02:30 196 8 gusting 20 18.3
2019-Aug-17 02:15 236 6 gusting 19 18.3
2019-Aug-17 02:00 237 6 gusting 16 18.3
2019-Aug-17 01:45 198 7 gusting 18 18.3
2019-Aug-17 01:30 221 6 gusting 22 18.3
2019-Aug-17 01:15 200 6 gusting 19 18.3
2019-Aug-17 01:00 235 6 gusting 19 18.3
2019-Aug-17 00:45 225 7 gusting 19 18.3
2019-Aug-17 00:30 257 6 gusting 17 18.3
2019-Aug-17 00:15 201 6 gusting 19 18.3
2019-Aug-17 00:00 226 7 gusting 20 17.8
2019-Aug-16 23:45 247 6 gusting 19 17.8
2019-Aug-16 17:45 224 7 gusting 19 18.3
2019-Aug-16 16:45 228 9 gusting 27 20.6
2019-Aug-16 15:15 193 9 gusting 24 21.1
2019-Aug-16 15:00 248 7 gusting 22 22.2
2019-Aug-16 14:45 191 7 gusting 25 21.1
2019-Aug-16 14:30 202 10 gusting 24 21.1
2019-Aug-16 12:15 203 9 gusting 26 21.1
2019-Aug-16 10:45 204 7 gusting 21 19.4
2019-Aug-16 10:30 224 7 gusting 20 19.4
2019-Aug-16 09:45 221 6 gusting 18 19.4
2019-Aug-16 08:45 217 7 gusting 16 18.3
2019-Aug-16 08:30 199 6 gusting 19 18.3
2019-Aug-16 08:15 234 5 gusting 17 17.8
2019-Aug-16 08:00 210 5 gusting 13 17.8
2019-Aug-16 07:45 191 5 gusting 13 17.2
2019-Aug-16 07:30 200 5 gusting 13 16.7
2019-Aug-16 07:00 212 2 gusting 8 16.7
2019-Aug-16 06:45 170 3 gusting 12 15.6
2019-Aug-16 06:30 176 3 gusting 9 15.6
2019-Aug-16 06:15 184 4 gusting 13 15.0
2019-Aug-16 06:00 256 2 gusting 7 15.0
2019-Aug-16 05:45 203 2 gusting 7 14.4
2019-Aug-16 05:30 183 1 gusting 6 14.4
2019-Aug-16 05:15 162 2 gusting 6 14.4
2019-Aug-16 05:00 184 3 gusting 7 14.4